Regional Weather Roundup
Issued by NWS

Home | Current Version | Previous Version | Text Only | Print | Product List | Glossary Off
Versions: 1 2 3 4 5 6 7 8 9 10 11 12 13 14 15 16 17 18 19 20 21 22 23 24 25 26 27 28 29 30 31 32 33 34 35 36 37 38 39 40 41 42 43 44 45 46 47 48 49 50

000
ASUS43 KLSX 301559
RWRMO

WEATHER SUMMARY FOR MISSOURI
NATIONAL WEATHER SERVICE SPRINGFIELD MO
1100 AM CDT SAT MAY 30 2015

NOTE: "FAIR" INDICATES FEW OR NO CLOUDS BELOW 12,000 FEET WITH NO
       SIGNIFICANT WEATHER AND/OR OBSTRUCTIONS TO VISIBILITY.
       CURRENT SKY AND/OR WEATHER CONDITIONS ARE NOT AVAILABLE FOR
       CHILLICOTHE AND FARMINGTON.

MOZ001>031-035>038-043-044-053-054-301700-
...NORTHERN AND WESTERN MISSOURI...

CITY           SKY/WX    TMP DP  RH WIND       PRES   REMARKS
KANSAS CTY INT CLOUDY    57  54  89 N14       30.10S
KANSAS C DTWN  CLOUDY    57  53  86 NW8       30.09S
LEE`S SUMMIT   CLOUDY    58  54  86 NW14      30.09R
ST JOSEPH      CLOUDY    58  53  84 N15       30.12R
CHILLICOTHE      N/A     62  57  83 VRB7      30.08R
KIRKSVILLE     CLOUDY    63  60  90 NW13      30.05R

$$
MOZ066>068-077>081-088>096-101>105-301700-
...SOUTHWEST MISSOURI...

CITY           SKY/WX    TMP DP  RH WIND       PRES   REMARKS
SPRINGFIELD    CLOUDY    71  65  81 NW12      30.03R
JOPLIN         CLOUDY    66  63  90 N10       30.07R

$$
MOZ032>034-039>042-045>050-055>058-069>072-301700-
...CENTRAL MISSOURI...

CITY           SKY/WX    TMP DP  RH WIND       PRES   REMARKS
COLUMBIA       CLOUDY    72  66  81 N10       30.00S
JEFFERSON CITY HVY RAIN  69  65  86 NW7       29.99R FOG
ROLLA          LGT RAIN  66  64  93 NW8       29.98S FOG
SEDALIA        CLOUDY    64  60  87 NW14      30.05R
OSAGE BEACH    PTSUNNY   66  64  94 CALM      30.00R

$$
MOZ051-052-059>065-301700-
...EAST CENTRAL MISSOURI...

CITY           SKY/WX    TMP DP  RH WIND       PRES   REMARKS
ST LOUIS INTL  LGT RAIN  72  66  81 VRB3      29.97S
SPIRIT OF STL  LGT RAIN  69  68  96 CALM      29.96S FOG
ST CHARLES     CLOUDY    70  67  90 NW6       29.96S

$$
MOZ072>076-082>087-097>100-106>115-301700-
...SOUTH CENTRAL AND SOUTHEAST MISSOURI...

CITY           SKY/WX    TMP DP  RH WIND       PRES   REMARKS
CAPE GIRARDEAU MOSUNNY   78  67  68 S16G23    29.95F
FARMINGTON     CLOUDY    70  66  88 SE3       29.98F
POPLAR BLUFF   RAIN      71  68  90 S8        29.92F FOG
WEST PLAINS    CLOUDY    67  64  90 N6        29.99R

$$



USA.gov is the U.S. government's official web portal to all federal, state and local government web resources and services.